period_start,C,m1,H,J0,J1,J2,J3,J4,J5,JA,JB,JC,JD,JJ,JK,JN,#
2015-10-05 00:03:30,0.02,0.43,0.00,22.59,27.65,30.62,14.57,48.17,1015.64,2035.00,3389.79,3173.27,3438.14,599.82,596.18,31.80,0000 0000 0000 0000 000000
2015-10-05 00:08:32,0.00,0.43,0.00,22.71,27.65,30.58,14.58,48.18,1015.64,2035.00,3389.70,3173.07,3438.01,600.20,596.25,31.85,0000 0000 0000 0000 000000
2015-10-05 00:13:33,0.00,0.43,0.00,22.84,27.66,30.59,14.55,48.10,1015.64,2035.00,3389.39,3173.02,3438.00,600.30,595.98,31.90,0000 0000 0000 0000 000000
2015-10-05 00:18:35,0.00,0.43,0.00,22.70,27.67,30.62,14.57,48.19,1015.64,2035.00,3389.06,3173.01,3437.98,599.47,595.47,31.95,0000 0000 0000 0000 000000
2015-10-05 00:23:35,0.00,0.43,0.00,22.73,27.67,30.56,14.57,48.16,1015.64,2035.00,3388.92,3173.00,3437.89,600.18,596.15,32.00,0000 0000 0000 0000 000000
2015-10-05 00:28:36,0.04,0.43,0.00,22.85,27.69,30.60,14.56,48.11,1015.64,2035.00,3388.07,3172.62,3437.23,600.12,595.88,32.05,0000 0000 0000 0000 000000
2015-10-05 00:33:38,0.05,0.44,0.00,22.76,27.70,30.60,14.57,48.22,1015.64,2034.99,3386.80,3171.88,3436.65,599.97,595.97,32.10,0000 0000 0000 0000 000000
2015-10-05 00:38:39,0.06,0.44,0.00,22.88,27.71,30.58,14.60,48.25,1015.64,2034.99,3385.04,3171.02,3435.66,600.26,595.98,32.15,0000 0000 0000 0000 000000
2015-10-05 00:43:40,0.03,0.44,0.00,22.89,27.72,30.63,14.54,48.05,1015.64,2034.97,3384.07,3170.31,3435.00,599.83,595.54,32.20,0000 0000 0000 0000 000000
2015-10-05 00:48:42,0.00,0.44,0.00,22.86,27.74,30.62,14.56,48.18,1015.64,2034.98,3383.98,3170.04,3434.97,600.13,595.87,32.25,0000 0000 0000 0000 000000
2015-10-05 00:53:43,0.04,0.44,0.00,22.92,27.75,30.61,14.49,48.29,1015.64,2034.96,3383.07,3169.88,3434.24,599.92,595.55,32.30,0000 0000 0000 0000 000000
2015-10-05 00:58:44,0.06,0.45,0.00,23.02,27.77,30.62,14.52,48.16,1015.64,2034.91,3381.25,3168.97,3433.18,599.91,595.28,32.35,0000 0000 0000 0000 000000
2015-10-05 01:03:46,0.01,0.45,0.00,22.98,27.78,30.66,14.51,48.26,1015.64,2034.56,3380.13,3168.09,3432.23,599.64,595.07,32.40,0000 0000 0000 0000 000000
2015-10-05 01:08:47,-0.02,0.45,0.00,23.04,27.80,30.63,14.58,48.20,1015.64,2034.18,3379.79,3168.00,3432.00,599.96,595.35,32.45,0000 0000 0000 0000 000000
2015-10-05 01:13:48,0.03,0.45,0.00,23.14,27.81,30.65,14.53,48.09,1015.64,2034.22,3379.07,3167.93,3431.99,600.01,595.20,32.50,0000 0000 0000 0000 000000
2015-10-05 01:18:49,0.02,0.45,0.00,23.18,27.82,30.66,14.50,48.17,1015.64,2034.13,3378.45,3167.22,3431.56,599.60,594.69,32.55,0000 0000 0000 0000 000000
2015-10-05 01:23:50,0.01,0.45,0.00,23.15,27.82,30.67,14.49,48.09,1015.64,2034.05,3377.63,3166.97,3431.01,599.48,594.75,32.60,0000 0000 0000 0000 000000
2015-10-05 01:28:51,0.04,0.45,0.00,23.24,27.84,30.69,14.55,48.11,1015.64,2034.03,3376.83,3166.27,3430.30,600.44,595.42,32.65,0000 0000 0000 0000 000000
2015-10-05 01:33:53,0.01,0.45,0.00,23.18,27.85,30.68,14.58,48.24,1015.64,2034.02,3376.05,3165.99,3429.99,599.84,594.90,32.70,0000 0000 0000 0000 000000
2015-10-05 01:38:54,0.04,0.45,0.00,23.27,27.85,30.65,14.51,48.05,1015.64,2034.00,3375.42,3165.49,3429.38,599.86,594.90,32.75,0000 0000 0000 0000 000000
2015-10-05 01:43:55,0.02,0.46,0.00,23.32,27.86,30.67,14.49,48.11,1015.64,2034.01,3374.62,3165.01,3429.00,599.88,594.66,32.81,0000 0000 0000 0000 000000
2015-10-05 01:48:56,0.00,0.46,0.00,23.37,27.87,30.68,14.50,47.94,1015.64,2034.00,3374.01,3164.98,3428.95,600.14,594.83,32.86,0000 0000 0000 0000 000000
2015-10-05 01:53:57,0.01,0.46,0.00,23.39,27.87,30.68,14.45,47.90,1015.64,2034.00,3373.99,3164.79,3428.20,600.03,594.70,32.91,0000 0000 0000 0000 000000
2015-10-05 01:58:58,0.02,0.46,0.00,23.34,27.89,30.69,14.58,48.15,1015.64,2034.00,3373.61,3164.16,3428.00,600.36,595.00,32.96,0000 0000 0000 0000 000000
2015-10-05 02:03:59,0.01,0.46,0.00,23.43,27.90,30.70,14.48,48.03,1015.64,2034.00,3373.09,3164.03,3427.97,599.67,594.37,33.01,0000 0000 0000 0000 000000
2015-10-05 02:09:01,0.01,0.46,0.00,23.44,27.90,30.70,14.47,48.07,1015.63,2034.00,3372.72,3163.99,3427.58,600.12,594.68,33.06,0000 0000 0000 0000 000000
2015-10-05 02:14:02,0.01,0.46,0.00,23.47,27.91,30.70,14.53,48.04,1015.64,2034.00,3372.03,3163.85,3427.07,599.83,594.27,33.11,0000 0000 0000 0000 000000
2015-10-05 02:19:03,0.01,0.46,0.00,23.48,27.92,30.71,14.60,47.96,1015.64,2034.00,3371.99,3163.29,3427.00,600.24,594.81,33.16,0000 0000 0000 0000 000000
2015-10-05 02:24:05,0.01,0.46,0.00,23.54,27.93,30.70,14.50,48.00,1015.64,2034.00,3371.63,3163.02,3426.98,599.98,594.32,33.21,0000 0000 0000 0000 000000
2015-10-05 02:29:06,0.01,0.46,0.00,23.59,27.95,30.69,14.50,48.08,1015.64,2033.99,3371.02,3163.00,3426.59,599.83,594.09,33.26,0000 0000 0000 0000 000000
2015-10-05 02:34:08,0.01,0.46,0.00,23.61,27.95,30.71,14.43,47.92,1015.63,2033.99,3370.78,3162.95,3426.05,599.73,593.96,33.31,0000 0000 0000 0000 000000
2015-10-05 02:39:09,0.02,0.46,0.00,23.64,27.95,30.72,14.46,47.94,1015.57,2033.99,3370.12,3162.61,3426.00,600.12,594.30,33.36,0000 0000 0000 0000 000000
2015-10-05 02:44:10,0.33,0.47,0.00,23.67,27.97,30.70,14.54,47.98,1015.59,2033.98,3364.80,3159.60,3423.13,599.98,594.15,33.41,0000 0000 0000 0000 000000
2015-10-05 02:49:11,0.38,0.50,0.00,23.71,27.97,30.71,14.51,48.02,1015.55,2033.97,3352.41,3152.93,3416.00,599.93,593.95,33.46,0000 0000 0000 0000 000000
2015-10-05 02:54:12,0.30,0.51,0.00,23.72,27.98,30.69,14.43,48.01,1015.59,2033.98,3344.10,3148.85,3411.61,599.65,593.63,33.51,0000 0000 0000 0000 000000
2015-10-05 02:59:14,0.09,0.52,0.00,23.72,28.00,30.71,14.37,47.83,1015.63,2033.98,3341.06,3147.19,3409.79,600.09,594.14,33.56,0000 0000 0000 0000 000000
2015-10-05 03:04:15,0.08,0.52,0.00,23.75,28.00,30.73,14.43,47.97,1015.62,2033.96,3338.79,3145.87,3408.43,599.90,593.78,33.61,0000 0000 0000 0000 000000
2015-10-05 03:09:16,0.08,0.53,0.00,23.78,28.02,30.74,14.47,48.11,1015.57,2033.96,3336.54,3144.57,3407.06,600.03,593.89,33.66,0000 0000 0000 0000 000000
2015-10-05 03:14:18,0.07,0.53,0.00,23.77,28.03,30.72,14.42,48.14,1015.57,2033.93,3334.77,3143.48,3405.84,600.06,593.93,33.71,0000 0000 0000 0000 000000
2015-10-05 03:19:19,0.03,0.53,0.00,23.80,28.05,30.74,14.51,48.11,1015.54,2033.73,3333.36,3142.65,3404.86,600.25,594.14,33.76,0000 0000 0000 0000 000000
2015-10-05 03:24:21,0.01,0.54,0.00,23.79,28.05,30.74,14.45,48.07,1015.50,2033.48,3332.29,3142.01,3404.07,599.98,593.81,33.82,0000 0000 0000 0000 000000
2015-10-05 03:29:22,0.02,0.54,0.00,23.80,28.07,30.75,14.42,48.08,1015.41,2033.26,3331.57,3141.69,3403.89,600.10,593.82,33.87,0000 0000 0000 0000 000000
2015-10-05 03:34:24,0.01,0.54,0.00,23.81,28.08,30.77,14.44,48.09,1015.23,2033.10,3330.99,3141.05,3403.15,599.80,593.48,33.92,0000 0000 0000 0000 000000
2015-10-05 03:39:25,0.01,0.54,0.00,23.83,28.10,30.79,14.48,48.22,1015.18,2033.06,3330.26,3140.96,3402.97,600.14,593.80,33.97,0000 0000 0000 0000 000000
2015-10-05 03:44:26,0.06,0.54,0.00,23.86,28.10,30.78,14.41,48.22,1015.17,2033.05,3328.98,3140.06,3402.05,599.77,593.24,34.02,0000 0000 0000 0000 000000
2015-10-05 03:49:28,0.05,0.54,0.00,23.89,28.12,30.78,14.47,48.26,1015.17,2033.05,3327.72,3139.10,3401.11,599.87,593.37,34.07,0000 0000 0000 0000 000000
2015-10-05 03:54:29,0.01,0.55,0.00,23.88,28.12,30.79,14.46,48.21,1015.17,2033.03,3326.99,3138.94,3400.86,599.76,593.18,34.12,0000 0000 0000 0000 000000
2015-10-05 03:59:30,0.04,0.55,0.00,23.91,28.14,30.82,14.49,48.24,1015.17,2033.01,3326.13,3138.12,3400.06,599.84,593.19,34.17,0000 0000 0000 0000 000000
2015-10-05 04:04:32,0.00,0.55,0.00,23.88,28.15,30.83,14.40,48.08,1015.18,2033.00,3325.90,3138.00,3399.93,599.92,593.36,34.22,0000 0000 0000 0000 000000
2015-10-05 04:09:34,0.02,0.55,0.00,23.91,28.15,30.84,14.46,48.12,1015.18,2033.00,3325.21,3137.97,3399.51,600.14,593.52,34.27,0000 0000 0000 0000 000000
2015-10-05 04:14:35,0.02,0.55,0.00,23.94,28.15,30.84,14.41,48.12,1015.16,2033.00,3325.00,3137.56,3399.03,599.50,592.73,34.32,0000 0000 0000 0000 000000
2015-10-05 04:19:36,0.02,0.55,0.00,23.99,28.16,30.84,14.39,48.07,1015.17,2033.00,3324.44,3137.04,3398.98,600.08,593.28,34.37,0000 0000 0000 0000 000000
2015-10-05 04:24:38,0.00,0.55,0.00,23.95,28.16,30.85,14.35,48.08,1015.17,2033.00,3324.00,3137.00,3398.68,599.47,592.75,34.42,0000 0000 0000 0000 000000
2015-10-05 04:29:39,0.01,0.55,0.00,23.93,28.16,30.84,14.50,48.10,1015.17,2033.00,3323.78,3136.98,3398.14,600.13,593.44,34.47,0000 0000 0000 0000 000000
2015-10-05 04:34:40,0.02,0.55,0.00,23.98,28.16,30.84,14.49,48.13,1015.17,2033.00,3323.07,3136.72,3398.00,600.56,593.83,34.52,0000 0000 0000 0000 000000
2015-10-05 04:39:41,0.01,0.55,0.00,24.00,28.17,30.83,14.45,48.09,1015.17,2032.98,3322.96,3136.09,3397.95,600.89,594.07,34.57,0000 0000 0000 0000 000000
2015-10-05 04:44:42,0.03,0.56,0.00,23.98,28.17,30.83,14.41,48.15,1015.16,2032.98,3322.15,3135.95,3397.30,600.15,593.34,34.62,0000 0000 0000 0000 000000
2015-10-05 04:49:43,0.07,0.56,0.00,23.99,28.17,30.84,14.42,48.13,1015.16,2032.99,3320.50,3135.12,3396.48,599.80,593.06,34.67,0000 0000 0000 0000 000000
2015-10-05 04:54:44,0.02,0.56,0.00,23.97,28.17,30.86,14.49,48.05,1015.18,2032.99,3319.10,3134.81,3395.95,600.45,593.63,34.73,0000 0000 0000 0000 000000
2015-10-05 04:59:45,0.02,0.56,0.00,23.95,28.17,30.86,14.40,48.17,1015.17,2032.97,3318.83,3134.20,3395.26,599.92,593.22,34.78,0000 0000 0000 0000 000000
2015-10-05 05:04:46,0.02,0.56,0.00,23.88,28.17,30.88,14.45,47.94,1015.17,2032.98,3318.11,3134.02,3395.01,599.75,593.14,34.83,0000 0000 0000 0000 000000
2015-10-05 05:09:48,0.00,0.56,0.00,23.87,28.17,30.85,14.47,47.91,1015.19,2032.96,3317.96,3134.00,3394.99,600.28,593.69,34.88,0000 0000 0000 0000 000000
2015-10-05 05:14:49,0.02,0.56,0.00,23.87,28.17,30.89,14.54,48.03,1015.32,2032.96,3317.38,3133.88,3394.76,600.21,593.69,34.93,0000 0000 0000 0000 000000
2015-10-05 05:19:50,0.07,0.57,0.00,23.83,28.17,30.87,14.44,48.12,1015.38,2032.98,3315.67,3132.88,3393.74,599.84,593.49,34.98,0000 0000 0000 0000 000000
2015-10-05 05:24:51,0.06,0.57,0.00,23.76,28.17,30.89,14.46,48.08,1015.39,2032.97,3313.76,3132.03,3392.80,599.88,593.67,35.03,0000 0000 0000 0000 000000
2015-10-05 05:29:52,0.05,0.57,0.00,23.57,28.17,30.91,14.53,48.17,1015.44,2032.98,3312.61,3131.44,3392.06,600.52,594.64,35.08,0000 0000 0000 0000 000000
2015-10-05 05:34:54,0.04,0.58,0.00,23.46,28.17,30.90,14.53,48.23,1015.46,2032.97,3311.35,3130.84,3391.35,599.91,594.40,35.13,0000 0000 0000 0000 000000
2015-10-05 05:39:55,0.03,0.58,0.00,23.39,28.17,30.92,14.51,48.17,1015.50,2032.97,3310.15,3130.08,3391.00,599.89,594.49,35.18,0000 0000 0000 0000 000000
2015-10-05 05:44:57,0.00,0.58,0.00,23.30,28.16,30.91,14.56,48.12,1015.60,2032.97,3309.83,3129.97,3390.87,600.23,595.16,35.23,0000 0000 0000 0000 000000
2015-10-05 05:49:58,0.14,0.58,0.00,23.18,28.15,30.96,14.58,48.16,1015.63,2032.95,3306.87,3128.54,3389.14,600.06,595.10,35.28,0000 0000 0000 0000 000000
2015-10-05 05:54:59,0.10,0.59,0.00,23.01,28.15,30.98,14.52,48.04,1015.64,2032.97,3303.51,3126.93,3387.37,599.92,595.31,35.33,0000 0000 0000 0000 000000
2015-10-05 06:00:00,0.04,0.59,0.00,22.82,28.12,31.01,14.58,48.16,1015.64,2032.97,3302.12,3126.07,3386.94,600.09,595.81,35.38,0000 0000 0000 0000 000000
2015-10-05 06:05:02,0.02,0.59,0.00,22.73,28.11,31.05,14.52,48.27,1015.64,2032.99,3301.27,3126.00,3386.20,599.94,595.92,35.43,0000 0000 0000 0000 000000
2015-10-05 06:10:03,0.01,0.60,0.00,22.69,28.10,31.09,14.60,48.36,1015.64,2032.99,3300.75,3125.87,3386.01,600.17,596.19,35.48,0000 0000 0000 0000 000000
2015-10-05 06:15:04,0.04,0.60,0.00,22.67,28.08,31.14,14.53,48.23,1015.63,2032.99,3299.83,3125.12,3385.64,600.03,596.22,35.53,0000 0000 0000 0000 000000
2015-10-05 06:20:05,0.08,0.60,0.00,22.67,28.07,31.11,14.66,48.26,1015.64,2032.99,3297.83,3124.36,3384.57,600.07,596.25,35.58,0000 0000 0000 0000 000000
2015-10-05 06:25:07,0.06,0.60,0.00,22.76,28.05,30.95,14.60,48.28,1015.64,2032.99,3295.99,3123.28,3383.57,599.89,595.79,35.63,0000 0000 0000 0000 000000
2015-10-05 06:30:08,0.02,0.61,0.00,22.98,28.05,30.92,14.47,48.21,1015.64,2032.99,3294.96,3122.96,3382.93,600.04,595.47,35.68,0000 0000 0000 0000 000000
2015-10-05 06:35:09,0.04,0.61,0.00,22.92,28.04,30.89,14.50,48.23,1015.64,2032.99,3293.98,3122.49,3382.44,599.82,595.43,35.74,0000 0000 0000 0000 000000
2015-10-05 06:40:11,0.05,0.61,0.00,22.98,28.02,30.85,14.47,48.27,1015.64,2033.00,3292.54,3121.81,3381.76,599.55,595.13,35.79,0000 0000 0000 0000 000000
2015-10-05 06:45:12,0.04,0.61,0.00,23.07,28.02,30.82,14.50,48.24,1015.64,2033.00,3291.06,3121.03,3381.03,599.86,595.18,35.84,0000 0000 0000 0000 000000
2015-10-05 06:50:13,0.02,0.61,0.00,23.14,28.02,30.84,14.50,48.20,1015.64,2033.01,3290.11,3120.85,3380.62,599.88,595.35,35.89,0000 0000 0000 0000 000000
2015-10-05 06:55:14,0.03,0.62,0.00,23.19,28.02,30.81,14.48,48.08,1015.64,2033.00,3289.55,3120.20,3380.05,599.83,594.92,35.94,0000 0000 0000 0000 000000
2015-10-05 07:00:16,0.00,0.62,0.00,23.19,28.02,30.86,14.51,48.12,1015.64,2033.00,3289.02,3120.01,3379.99,599.82,594.84,35.99,0000 0000 0000 0000 000000
2015-10-05 07:05:17,0.01,0.62,0.00,23.21,28.02,30.83,14.55,48.11,1015.64,2033.00,3288.71,3119.99,3379.65,599.81,594.79,36.04,0000 0000 0000 0000 000000
2015-10-05 07:10:19,0.04,0.62,0.00,23.24,28.00,30.85,14.53,48.12,1015.64,2033.00,3287.80,3119.41,3379.02,599.53,594.50,36.09,0000 0000 0000 0000 000000
2015-10-05 07:15:20,0.05,0.62,0.00,23.28,28.00,30.85,14.50,48.02,1015.65,2033.00,3286.38,3118.77,3378.20,600.13,595.04,36.14,0000 0000 0000 0000 000000
2015-10-05 07:20:21,0.08,0.63,0.00,23.29,28.00,30.83,14.50,48.07,1015.64,2033.00,3284.42,3117.76,3377.28,599.82,594.64,36.19,0000 0000 0000 0000 000000
2015-10-05 07:25:22,0.05,0.63,0.00,23.33,28.00,30.83,14.56,48.06,1015.65,2033.00,3282.54,3117.01,3376.18,600.49,595.31,36.24,0000 0000 0000 0000 000000
2015-10-05 07:30:23,0.03,0.63,0.00,23.35,28.00,30.86,14.46,48.09,1015.64,2033.00,3281.58,3116.32,3375.96,600.03,594.71,36.29,0000 0000 0000 0000 000000
2015-10-05 07:35:24,0.03,0.63,0.00,23.40,28.00,30.84,14.53,48.04,1015.65,2033.00,3280.42,3115.99,3375.16,600.16,594.98,36.34,0000 0000 0000 0000 000000
2015-10-05 07:40:26,0.03,0.63,0.00,23.36,28.00,30.83,14.60,48.12,1015.65,2033.04,3279.52,3115.61,3374.99,600.16,594.81,36.39,0000 0000 0000 0000 000000
2015-10-05 07:45:27,0.02,0.64,0.00,23.38,27.98,30.82,14.56,48.10,1015.70,2033.01,3279.01,3115.04,3374.52,600.53,595.20,36.44,0000 0000 0000 0000 000000
2015-10-05 07:50:28,0.06,0.64,0.00,23.41,27.97,30.81,14.46,48.05,1015.73,2033.00,3277.91,3114.57,3373.67,600.14,594.87,36.49,0000 0000 0000 0000 000000
2015-10-05 07:55:30,0.18,0.65,0.00,23.42,27.97,30.79,14.55,47.98,1015.76,2033.03,3273.75,3112.57,3371.68,600.21,594.91,36.54,0000 0000 0000 0000 000000
2015-10-05 08:00:31,0.24,0.66,0.00,23.37,27.96,30.78,14.53,48.07,1015.80,2033.04,3267.31,3109.44,3368.36,600.35,595.17,36.59,0000 0000 0000 0000 000000
2015-10-05 08:05:32,0.18,0.67,0.00,23.38,27.95,30.78,14.56,48.06,1015.93,2033.03,3262.01,3106.77,3365.49,600.53,595.29,36.65,0000 0000 0000 0000 000000
2015-10-05 08:10:34,0.16,0.68,0.00,23.31,27.95,30.74,14.47,48.12,1016.04,2033.05,3257.59,3104.66,3363.22,599.76,594.66,36.70,0000 0000 0000 0000 000000
2015-10-05 08:15:35,0.15,0.68,0.00,23.30,27.93,30.76,14.51,48.07,1016.11,2033.14,3253.81,3102.81,3361.34,600.11,595.23,36.75,0000 0000 0000 0000 000000
2015-10-05 08:20:36,0.38,0.70,0.00,23.25,27.92,30.76,14.48,48.15,1016.13,2033.09,3245.65,3098.60,3356.73,599.87,595.08,36.80,0000 0000 0000 0000 000000
2015-10-05 08:25:37,0.09,0.71,0.00,23.28,27.91,30.77,14.53,48.09,1016.13,2033.05,3240.69,3096.09,3354.07,600.01,595.15,36.85,0000 0000 0000 0000 000000
2015-10-05 08:30:39,0.06,0.71,0.00,23.13,27.90,30.77,14.57,48.13,1016.13,2033.06,3239.15,3095.34,3353.17,600.05,595.64,36.90,0000 0000 0000 0000 000000
2015-10-05 08:35:40,0.17,0.72,0.00,23.15,27.89,30.76,14.51,48.21,1016.13,2033.03,3235.36,3093.50,3351.19,599.62,595.16,36.95,0000 0000 0000 0000 000000
2015-10-05 08:40:41,0.22,0.73,0.00,23.14,27.87,30.77,14.53,48.30,1016.13,2033.04,3229.46,3090.61,3348.10,600.09,595.49,37.00,0000 0000 0000 0000 000000
2015-10-05 08:45:42,0.21,0.74,0.00,23.09,27.86,30.76,14.56,48.28,1016.13,2033.04,3223.73,3087.92,3345.18,599.82,595.39,37.05,0000 0000 0000 0000 000000
2015-10-05 08:50:43,0.10,0.75,0.00,23.07,27.85,30.72,14.51,48.12,1016.13,2033.12,3220.42,3086.42,3343.70,600.32,595.98,37.10,0000 0000 0000 0000 000000
2015-10-05 08:55:44,0.07,0.75,0.00,23.10,27.82,30.71,14.59,48.05,1016.13,2033.20,3218.54,3085.49,3342.63,600.36,595.90,37.15,0000 0000 0000 0000 000000
2015-10-05 09:00:45,0.06,0.76,0.00,23.05,27.82,30.71,14.54,48.25,1016.13,2033.25,3217.00,3084.84,3341.91,599.81,595.67,37.20,0000 0000 0000 0000 000000
2015-10-05 09:05:47,0.06,0.76,0.00,23.05,27.80,30.71,14.57,48.20,1016.13,2033.34,3215.30,3084.04,3341.05,599.91,595.57,37.25,0000 0000 0000 0000 000000
2015-10-05 09:10:48,0.08,0.76,0.00,23.01,27.79,30.73,14.59,48.27,1016.13,2033.62,3213.80,3083.30,3340.26,600.11,595.87,37.30,0000 0000 0000 0000 000000
2015-10-05 09:15:49,0.04,0.77,0.00,22.96,27.77,30.70,14.52,48.15,1016.13,2033.88,3212.72,3082.99,3339.99,599.67,595.47,37.35,0000 0000 0000 0000 000000
2015-10-05 09:20:50,0.05,0.77,0.00,22.89,27.76,30.70,14.57,48.17,1016.13,2033.96,3211.72,3082.40,3339.38,600.22,596.14,37.40,0000 0000 0000 0000 000000
2015-10-05 09:25:52,0.01,0.77,0.00,22.88,27.75,30.69,14.64,48.14,1016.13,2033.97,3210.84,3082.00,3339.00,600.31,596.29,37.45,0000 0000 0000 0000 000000
2015-10-05 09:30:53,0.02,0.77,0.00,22.86,27.73,30.66,14.56,48.20,1016.13,2033.98,3209.90,3081.89,3338.89,599.77,595.83,37.50,0000 0000 0000 0000 000000
2015-10-05 09:35:54,0.04,0.77,0.00,22.79,27.72,30.66,14.53,48.15,1016.13,2033.99,3209.04,3081.14,3338.17,600.00,596.14,37.55,0000 0000 0000 0000 000000
2015-10-05 09:40:55,0.01,0.78,0.00,22.75,27.71,30.65,14.62,48.18,1016.13,2033.99,3208.21,3081.01,3338.01,599.99,596.30,37.61,0000 0000 0000 0000 000000
2015-10-05 09:45:57,0.02,0.78,0.00,22.71,27.70,30.65,14.55,48.24,1016.13,2034.00,3207.63,3080.87,3337.76,599.70,596.02,37.66,0000 0000 0000 0000 000000
2015-10-05 09:50:58,0.05,0.78,0.00,22.66,27.70,30.64,14.56,48.29,1016.13,2034.00,3206.38,3080.07,3337.03,599.56,596.02,37.71,0000 0000 0000 0000 000000
2015-10-05 09:55:59,0.05,0.78,0.00,22.66,27.68,30.63,14.59,48.11,1016.13,2034.00,3205.24,3079.59,3336.32,600.05,596.54,37.76,0000 0000 0000 0000 000000
2015-10-05 10:01:01,0.02,0.78,0.00,22.55,27.67,30.65,14.50,48.18,1016.13,2034.01,3204.12,3079.01,3335.98,599.72,596.40,37.81,0000 0000 0000 0000 000000
2015-10-05 10:06:02,0.04,0.78,0.00,22.48,27.66,30.64,14.60,48.36,1016.13,2034.05,3203.09,3078.79,3335.34,599.88,596.67,37.86,0000 0000 0000 0000 000000
2015-10-05 10:11:03,0.03,0.79,0.00,22.47,27.65,30.64,14.62,48.23,1016.14,2034.06,3202.20,3078.05,3334.99,600.17,597.09,37.91,0000 0000 0000 0000 000000
2015-10-05 10:16:04,0.02,0.79,0.00,22.42,27.65,30.64,14.51,48.27,1016.16,2034.10,3201.50,3077.98,3334.66,599.70,596.68,37.96,0000 0000 0000 0000 000000
2015-10-05 10:21:05,0.03,0.79,0.00,22.40,27.64,30.64,14.68,48.33,1016.16,2034.19,3200.99,3077.73,3334.11,600.36,597.33,38.01,0000 0000 0000 0000 000000
2015-10-05 10:26:07,0.04,0.79,0.00,22.33,27.62,30.64,14.59,48.35,1016.16,2034.32,3200.56,3077.16,3334.00,600.11,597.20,38.06,0000 0000 0000 0000 000000
2015-10-05 10:31:08,0.03,0.79,0.00,22.29,27.62,30.63,14.63,48.33,1016.16,2034.60,3200.02,3077.03,3334.00,600.12,597.23,38.11,0000 0000 0000 0000 000000
2015-10-05 10:36:10,0.03,0.79,0.00,22.32,27.62,30.62,14.58,48.18,1016.16,2034.84,3200.00,3077.02,3334.00,600.01,597.13,38.16,0000 0000 0000 0000 000000
2015-10-05 10:41:11,0.02,0.80,0.00,22.37,27.60,30.61,14.58,48.39,1016.16,2034.94,3199.66,3076.99,3333.77,600.13,597.13,38.21,0000 0000 0000 0000 000000
2015-10-05 10:46:12,0.06,0.80,0.00,22.30,27.60,30.63,14.53,48.24,1016.15,2034.96,3198.26,3076.25,3333.02,599.70,596.84,38.26,0000 0000 0000 0000 000000
2015-10-05 10:51:14,0.07,0.80,0.00,22.20,27.60,30.62,14.67,48.40,1016.14,2034.97,3196.41,3075.43,3331.98,600.03,597.44,38.31,0000 0000 0000 0000 000000
2015-10-05 10:56:15,0.11,0.81,0.00,22.08,27.58,30.64,14.66,48.24,1016.13,2034.96,3193.64,3074.01,3330.55,600.25,597.85,38.36,0000 0000 0000 0000 000000
2015-10-05 11:01:16,0.10,0.81,0.00,21.98,27.57,30.66,14.71,48.24,1016.14,2034.99,3191.07,3072.72,3329.21,600.12,597.94,38.41,0000 0000 0000 0000 000000
2015-10-05 11:06:17,0.24,0.82,0.00,21.91,27.55,30.74,14.68,48.33,1016.15,2034.98,3185.73,3070.15,3326.46,600.21,598.17,38.46,0000 0000 0000 0000 000000
2015-10-05 11:11:19,0.26,0.83,0.00,21.83,27.53,30.80,14.66,48.40,1016.14,2034.99,3178.39,3066.56,3322.72,600.15,598.19,38.51,0000 0000 0000 0000 000000
2015-10-05 11:16:20,0.16,0.84,0.00,21.93,27.52,30.66,14.71,48.44,1016.13,2034.99,3173.53,3064.17,3320.18,600.33,598.24,38.57,0000 0000 0000 0000 000000
2015-10-05 11:21:21,0.13,0.85,0.00,22.19,27.51,30.59,14.57,48.27,1016.13,2035.02,3169.87,3062.39,3318.29,600.10,597.49,38.62,0000 0000 0000 0000 000000
2015-10-05 11:26:23,0.13,0.86,0.00,22.04,27.50,30.63,14.55,48.24,1016.14,2035.03,3166.75,3060.77,3316.62,599.53,597.19,38.67,0000 0000 0000 0000 000000
2015-10-05 11:31:24,0.11,0.87,0.00,21.91,27.49,30.65,14.60,48.33,1016.14,2035.05,3163.61,3059.29,3315.02,599.51,597.57,38.72,0000 0000 0000 0000 000000
2015-10-05 11:36:25,0.09,0.87,0.00,21.83,27.47,30.71,14.72,48.29,1016.14,2035.10,3161.08,3058.04,3313.69,600.25,598.32,38.77,0000 0000 0000 0000 000000
2015-10-05 11:41:26,0.08,0.87,0.00,21.74,27.46,30.85,14.71,48.37,1016.14,2035.12,3158.93,3057.02,3312.61,600.21,598.52,38.82,0000 0000 0000 0000 000000
2015-10-05 11:46:28,0.09,0.88,0.00,21.71,27.44,30.86,14.64,48.44,1016.15,2035.41,3157.38,3056.16,3312.00,599.96,598.33,38.87,0000 0000 0000 0000 000000
2015-10-05 11:51:29,0.06,0.88,0.00,21.67,27.42,30.89,14.69,48.43,1016.14,2035.73,3156.06,3055.91,3311.16,599.90,598.31,38.92,0000 0000 0000 0000 000000
2015-10-05 11:56:30,0.07,0.89,0.00,21.62,27.40,30.91,14.69,48.37,1016.14,2035.94,3154.70,3055.10,3310.63,600.18,598.69,38.97,0000 0000 0000 0000 000000
2015-10-05 12:01:31,0.04,0.89,0.00,21.67,27.39,30.77,14.67,48.47,1016.14,2035.98,3153.56,3054.68,3310.01,599.97,598.41,39.02,0000 0000 0000 0000 000000
2015-10-05 12:06:32,0.04,0.89,0.00,21.98,27.38,30.55,14.70,48.27,1016.13,2035.99,3152.32,3053.97,3309.38,600.36,598.18,39.07,0000 0000 0000 0000 000000
2015-10-05 12:11:34,0.09,0.90,0.00,21.99,27.37,30.53,14.61,48.20,1016.14,2035.99,3150.26,3052.88,3308.28,599.83,597.52,39.12,0000 0000 0000 0000 000000
2015-10-05 12:16:35,0.08,0.90,0.00,21.83,27.37,30.54,14.63,48.17,1016.14,2035.99,3147.78,3051.80,3307.10,599.99,598.03,39.17,0000 0000 0000 0000 000000
2015-10-05 12:21:36,0.02,0.90,0.00,21.73,27.37,30.61,14.58,48.23,1016.14,2035.99,3147.00,3051.10,3306.76,599.74,598.08,39.22,0000 0000 0000 0000 000000
2015-10-05 12:26:38,0.00,0.90,0.00,21.66,27.35,30.63,14.61,48.34,1016.14,2035.99,3146.98,3051.09,3306.70,599.99,598.45,39.27,0000 0000 0000 0000 000000
2015-10-05 12:31:39,-0.00,0.90,0.00,21.63,27.35,30.72,14.70,48.37,1016.16,2035.99,3146.98,3051.19,3306.84,600.02,598.55,39.32,0000 0000 0000 0000 000000
2015-10-05 12:36:40,-0.00,0.90,0.00,21.56,27.32,30.84,14.71,48.38,1016.17,2035.99,3146.98,3051.19,3306.80,599.97,598.76,39.37,0000 0000 0000 0000 000000
2015-10-05 12:41:42,-0.01,0.90,0.00,21.54,27.32,30.82,14.68,48.44,1016.19,2036.00,3146.99,3051.36,3306.92,599.94,598.68,39.42,0000 0000 0000 0000 000000
2015-10-05 12:46:43,-0.00,0.90,0.00,21.52,27.30,30.80,14.61,48.47,1016.21,2036.01,3146.98,3051.61,3306.96,599.85,598.83,39.48,0000 0000 0000 0000 000000
2015-10-05 12:51:45,-0.00,0.90,0.00,21.56,27.30,30.63,14.65,48.42,1016.18,2036.02,3146.99,3051.81,3306.97,599.85,598.57,39.53,0000 0000 0000 0000 000000
2015-10-05 12:56:46,0.00,0.90,0.00,21.89,27.29,30.44,14.50,48.14,1016.25,2036.02,3146.99,3051.81,3306.99,599.65,597.69,39.58,0000 0000 0000 0000 000000